Showing default

SUPERVIEW NEO-2 03, 62079

Orbit data source: Space-Track

SUPERVIEW NEO-2 03, 62079 is a payload satellite owned by Siwei (CN) in SSO that was launched on Sun, 24 Nov 2024 UTC via a CHANG ZHENG 2C launch vehicle from the Jiuquan Satellite Launch Center, China (JSC). Payload-class satellites include a variety of spacecraft equipped with specific instruments for various scientific and technological missions. These include communications satellites like Starlink; space stations such as the ISS; scientific satellites like the Hubble; Earth observation satellites from companies like Planet Labs, Umbra, and HawkEye 360; GPS; miniature CubeSats for education and research; and military/defense satellites.

Loading next visibility...
Identifier
62079, 2024-218B
Orbit
SSO
Country
Flag of CNCN / PRC
Related business
Manufacturer
DFH
Mission
Operational Commercial Radar Imaging
Bus & Motor
SIWEI, Unknown motor
Mass
600 kg wet, ~500 kg dry
Launch date (UTC)
2024-11-24 (10 months ago)
Launch vehicle
CHANG ZHENG 2C
Launch site
Jiuquan Satellite Launch Center, China (JSC)
Object type
Payload
Rocket body
Debris
Shape & HBR
Box, 0.3 m
Radar Cross Section
0.375 m², Large (>1 m²)

Expand to show TLE details & history
Last TLE update: 1 day ago

TLE from 1 day ago
0 SUPERVIEW NEO-2 03
1 62079U 24218B   25260.85416474  .00004207  00000-0  20010-3 0  9994
2 62079  97.4390 267.1070 0001659  87.8104 272.3321 15.19720508 45085
Epoch: 2025-09-17T20:29Z
TLE epoch observation values (Epoch: 2025-09-17T20:29:59.833Z)
Latitude
-0.00001°
Longitude
-37.41645°
Altitude
509.727 km
Speed
7.609 km/s
True Right ascension
17h 48m 25s
True Declination
0° 00' 00"
Sunlit
Object was in daylight at epoch
Visualization orbit readout
Latitude
Unknown
Longitude
Unknown
Altitude
Unknown
Speed
Unknown
Apparent Right ascension
Unknown
Apparent Declination
Unknown
Sunlit
N/A
Visualization observer readout
Local Sidereal Time
14:27:24
Azimuth
Unknown
Elevation
Unknown
Doppler factor
Unknown
Orbital elements
Apogee altitude
504.794 km
Perigee altitude
502.511 km
Semi-major axis
6,881.789 km
Eccentricity
0.00017
Inclination
97.439°
RAAN
267.107°
Arg. of periapsis
87.8104°
True anomaly
272.3131°
Mean anomaly
272.3321°
Eccentric anomaly
272.3226°
Mean motion
3.80182 °/min
Orbital period
94.69 mins
BSTAR
0.0002001
Loading maneuver chart data...
Computing Atmospheric mass density...
Loading historical data...
Loading historical data...
Loading historical data...
Loading historical data...
Loading historical data...
Loading historical data...
Loading historical data...
Other satellites on launch #218 in the year 2024 (2024-11-24 UTC)

Documentation

Showing up to 5 results
|